ワイズ彗星

317P/WISE (2015)

English version
Home page
Updated on November 3, 2020

---------------------------------------------------------------------

・ プロフィール

符号 317P/2015 B3
検出日 2015年1月26日
検出光度 22.0等
検出者 Pan-STARRS 1 telescope (Haleakala)

・ 写真集

・ 軌道要素

Epoch 2015 Aug. 6.0 TT = JDT 2457240.5                                          
T 2015 Aug. 16.78998 TT                                 Bell                    
q   1.2762096            (2000.0)            P               Q                  
n   0.19286567     Peri.  334.78886     -0.32699729     +0.92232169             
a   2.9668762      Node   275.56753     -0.82821370     -0.38462330             
e   0.5698474      Incl.   11.93943     -0.45512068     +0.03725076             
P   5.11                                                                        
From 93 observations 2005 July 28-2020 Feb. 1, mean residual 0".6.              

・ 光度変化

        m1 = 17.0 + 5 logΔ + 10.0 log r

---------------------------------------------------------------------

軌道要素はM.P.E.C. 2020-C98に掲載されたものです。
光度グラフはComet for Windowsで作成したものです。

---------------------------------------------------------------------

Copyright(C) Seiichi Yoshida (comet@aerith.net). All rights reserved.